High Desert Yearling Classic - 8 Miles SE; Yearlings 3 Groups

Station: South Hills 10 Miles - T Race

Distance: 10 Miles

Release: 02-Apr-2024 08:00

Weather Release:    Arrival:

Wind at Release:     Wind at Arrival:

Temp at Release: °    Temp at Arrival: °

Lofts: 128

Birds: 546

Clocked: 646

Good Luck to Everyone!
Drops Pos Breeder Pigeon Name Color Sex Team Ent Arrival Speed To Win Elg Pd
1 Nick & Sons - WA 11200-AU23-JEDD BC H 1 1 08:21:54.67 803.2434 00:00:00 Yes
2 Sandoval Speed Test - CA 6576-AU23-VITA BB H 1 1 08:21:56.14 802.3463 00:00:01 Yes
3 New Year Loft - PA 2372-AU23-NWYR BCWF H 1 1 08:21:57.89 801.2808 00:00:03 Yes
4 Tim Farr - WA 2331-AU23-FARR ☀️ ⚡️ ⭐🦅 BC H 1 1 08:21:58.11 801.1471 00:00:03 Yes
5 BIRDHIGH RANCH LOFT - CA 7567-AU23-JEDD BB H 1 1 08:21:59.41 800.3577 00:00:05 Yes
6 M D C Loft - OR 1780-AU23-MDC p986x236 BB C 1 1 08:22:04.24 797.4385 00:00:10 Yes
7 Deko - UT 19960-AU23-JEDD BB H 1 1 08:22:07.71 795.3544 00:00:13 Yes
8 S & S - CA 23484-AU23-JEDD BB H 1 1 08:22:09.07 794.5405 00:00:14 Yes
9 Big T Loft - WA 6568-AU23-JEDD DC H 1 1 08:22:11.87 792.8702 00:00:17 Yes
10 Nick & Sons - WA 6907-AU23-JEDD BB H 1 2 08:22:14.16 791.5093 00:00:19 Yes
11 Marian Taloi - OR 43686-AU23-JEDD BC H 1 1 08:22:17.27 789.6685 00:00:23 Yes
12 Emmalyn & Carelyn Loft - CA 0818-AU23-CEYX BB H 1 1 08:22:28.69 782.9820 00:00:34 Yes
13 Circle C Lofts - UT 0868-AU23-DWI BB H 1 1 08:22:30.11 782.1585 00:00:35 Yes
14 Racing Pigeon Mall - WA 0360-AU23-RPM BBPI H 1 1 08:22:33.02 780.4763 00:00:38 Yes
15 E & E Loft - WA 23582-AU23-EE BB H 1 1 08:22:37.07 778.1470 00:00:42 Yes
16 Spirit Loft - NE 0394-AU23-SPIR 👉💥👈 BB C 1 1 08:22:37.56 777.8662 00:00:43 Yes
17 Maestas Family Loft - NM 23560-AU23-NMRP BBWF H 1 1 08:22:38.65 777.2421 00:00:44 Yes
18 Rory Smith - UT 3492-AU23-CDR 44X498 BB H 1 1 08:22:40.97 775.9172 00:00:46 Yes
19 Marian Taloi - OR 43580-AU23-JEDD BC H 1 2 08:22:41.99 775.3361 00:00:47 Yes
20 Stealth Loft - ID 23844-AU23-RMR BB H 1 1 08:22:42.86 774.8411 00:00:48 Yes
21 Deko - UT 10259-AU23-AA DCPD H 1 2 08:22:43.21 774.6422 00:00:49 Yes
22 VMBY Loft - CA 0079-AU23-VMBY BC H 1 1 08:22:43.32 774.5797 00:00:49 Yes
23 S & S - CA 23558-AU23-JEDD BB C 1 2 08:22:43.68 774.3752 00:00:49 Yes
24 Team Power Stroke - UT 0429-AU23-TPS BC H 1 1 08:22:44.78 773.7511 00:00:50 Lost
25 Utley Lofts - ID 0464-AU23-IDA GRIZ H 1 1 08:22:45.71 773.2242 00:00:51 Yes
26 Tim Farr - WA 2348-AU23-FARR ☀️ ⚡️ ⭐🦅 BC H 1 2 08:22:46.99 772.5002 00:00:52 Yes
27 1000 - NM 23941-AU23-ARPU BB H 1 1 08:22:48.75 771.5068 00:00:54 Yes
28 Glen Steelhammer - WA 3190-AU23-SWWR BC H 1 1 08:22:49.30 771.1970 00:00:55 Yes
29 Mile High - CO 3069-AU23-VITA BC H 1 1 08:22:49.49 771.0900 00:00:55 Yes
30 SalsloftCom Sons - UT 1012-AU23-SALS BB H 1 1 08:22:59.44 765.5280 00:01:05 Yes
31 Border Clan Scott - UT 0084-AU23-REBE BB C 1 1 08:23:00.43 764.9790 00:01:06 Yes
32 New Year Loft - PA 3333-IF23-GPC BC H 1 2 08:23:00.97 764.6799 00:01:06 Yes
33 Matt Jones - CO 0925-AU23-GJC BB H 1 1 08:23:01.50 764.3865 00:01:07 Yes
34 Radd - OK 2945-AU23-ARPU 14711/4326 PC 3 BB H 1 1 08:23:03.10 763.5023 00:01:08 Yes
35 R-And-R Loft - IL 4135-AU23-FOYS BB H 1 1 08:23:04.28 762.8514 00:01:10 Yes
36 Romanian Dave. - KS 0747-AU23-AIRC BB H 1 1 08:23:08.35 760.6151 00:01:14 Yes
37 Aimhigh Loft - CA 0636-AU23-CHIM Aim 0618-0006 BCPD C 1 1 08:23:08.65 760.4508 00:01:14 Yes
38 House Of Paine - CA 3686-AU23-GSF DC C 1 1 08:23:13.69 757.7008 00:01:19 Yes
39 Raizen Loft - WA 44495-AU23-RAIZ DC C 1 1 08:23:14.95 757.0164 00:01:20 Yes
40 Emmalyn & Carelyn Loft - CA 0821-AU23-CEYX BBWF H 1 2 08:23:19.79 754.3989 00:01:25 Yes
41 M D C Loft - OR 1770-AU23-MDC 401x199 BB H 1 2 08:23:20.01 754.2803 00:01:25 Yes
42 Allen Family Racing - NC 0142-AU23-AFR BB H 1 1 08:23:21.26 753.6075 00:01:27 Yes
43 John Guttierrez - NM 23092-AU23-GUTZ BBPD H 1 1 08:23:22.23 753.0862 00:01:28 Yes
44 Sandoval Speed Test - CA 6575-AU23-VITA BBWF C 1 2 08:23:25.17 751.5105 00:01:30 Yes
45 Big T Loft - WA 6636-AU23-JEDD Striker 2 BC C 1 2 08:23:27.29 750.3784 00:01:33 Yes
46 Nanez Family Loft - WI 8516-AU23-NANE BC H 1 1 08:23:28.64 749.6592 00:01:34 Yes
47 FRITZIE - CA 50007-AU23-JEDD BB H 1 1 08:23:30.56 748.6388 00:01:36 Yes
48 Mahonri Barlow - UT 0678-AU23-DWI BB C 1 1 08:23:31.08 748.3630 00:01:36 Yes
49 Hollywood Lou Loft - FL 1100-AU23-HOLL BB C 1 1 08:23:31.52 748.1297 00:01:37 Yes
50 Sandoval Speed Test - CA 14871-AU23-JEDD BB C 1 3 08:23:31.98 747.8859 00:01:37 Yes
51 1000 - NM 23947-AU23-ARPU BBWF C 1 2 08:23:33.33 747.1716 00:01:39 Yes
52 4j Loft 2 - UT 0068-AU23-4JLO BB C 1 1 08:23:33.69 746.9813 00:01:39 Yes
53 Radd - OK 2944-AU23-ARPU 14711/4326 PC 2* BB H 1 2 08:23:33.97 746.8334 00:01:39 Yes
54 Tim Farr - WA 2373-AU23-FARR ☀️ ⚡️ ⭐🦅 BBWF C 1 3 08:23:36.92 745.2785 00:01:42 Yes
55 1000 - NM 23955-AU23-ARPU BB H 1 3 08:23:45.46 740.8135 00:01:51 Yes
56 Keyways - ID 0376-AU23-KEYW 1306 X 27613 BB C 1 1 08:23:47.60 739.7030 00:01:53 Yes
57 Tim Farr - WA 2369-AU23-FARR ☀️ ⚡️ ⭐🦅 BC H 1 4 08:23:48.70 739.1335 00:01:54 Yes
58 Team Power Stroke - UT 0435-AU23-TPS BBSP H 1 2 08:23:51.59 737.6414 00:01:57 Lost
59 Mary Beaudry - WA 6567-AU23-JEDD Blk. Lightening DCPD H 1 1 08:23:52.79 737.0236 00:01:58 Yes
60 TBBL of Houston TX - TX 0165-AU23-TBBL Bounce And Run! BC H 1 1 08:23:55.63 735.5656 00:02:01 Yes
61 Chen Dong Loft - NY 6301-AU23-FOYS BB H 1 1 08:23:55.74 735.5092 00:02:01 Yes
62 Deko - UT 10260-AU23-AA MLY H 1 3 08:23:57.07 734.8285 00:02:02 Yes
63 Jimmyzheng Loft - MS 0277-AU23-JIMM BB C 1 1 08:23:57.53 734.5934 00:02:03 Yes
64 Hollywood Lou Loft - FL 1138-AU23-HOLL BB H 1 2 08:23:58.04 734.3328 00:02:03 Yes
65 Hans Family Loft - CA 0468-AU23-AUB BB C 1 1 08:24:05.34 730.6239 00:02:11 Yes
66 Mary Beaudry - WA 6588-AU23-JEDD Rosebud CHOC H 1 2 08:24:06.95 729.8110 00:02:12 Yes
67 M D C Loft - OR 1740-AU23-MDC p224x714 MLY C 1 3 08:24:09.29 728.6326 00:02:15 Yes
68 Stealth Loft - ID 23841-AU23-RMR BB C 1 2 08:24:10.53 728.0098 00:02:16 Yes
69 Maestas Family Loft - NM 23561-AU23-NMRP BB H 1 2 08:24:15.94 725.3046 00:02:21 Yes
70 Dads Loft - CA 23394-AU23-LAKE BB C 1 1 08:24:17.58 724.4885 00:02:23 Yes
71 David Sandeen - PA 5231-AU23-ERIE DCSP C 1 1 08:24:21.07 722.7580 00:02:26 Yes
72 Samurai - UT 3269-AU23-WFA BBWF H 1 1 08:24:21.96 722.3180 00:02:27 Yes
73 Emmalyn & Carelyn Loft - CA 0863-AU23-CEYX BC C 1 3 08:24:22.52 722.0414 00:02:28 Yes
74 Paynter Loft - ID 1882-AU23-WII BBWF C 1 1 08:24:24.57 721.0307 00:02:30 Yes
75 Circle C Lofts - UT 0874-AU23-DWI RB C 1 2 08:24:28.81 718.9494 00:02:34 Yes
76 Xfactord - OK 2959-AU23-ARPU Xenon DC C 1 1 08:24:31.17 717.7960 00:02:37 Yes
77 R & S Loft Of Tx - TX 0430-AU23-RSLO BB C 1 1 08:24:31.93 717.4254 00:02:37 Yes
78 Rock Creek Classic - ID 0816-AU23-208 Whiskey/Hyper BC H 1 1 08:24:32.31 717.2403 00:02:38 Yes
79 Transilvania Loft - NV 0693-AU23-CIMP BB C 1 1 08:24:38.15 714.4065 00:02:43 Yes
80 VMBY Loft - CA 0073-AU23-VMBY BB C 1 2 08:24:40.90 713.0799 00:02:46 Yes
81 Nanez Family Loft - WI 8633-AU23-NANE BB H 1 2 08:24:43.60 711.7822 00:02:49 Yes
82 Matincheck & Son - PA 0399-IF23-ACA BB C 1 1 08:24:44.56 711.3219 00:02:50 Yes
83 Gundog Loft - HI 0166-AU23-MKI BB C 1 1 08:24:45.66 710.7952 00:02:51 Yes
84 Marian Taloi - OR 43608-AU23-JEDD BB H 1 3 08:25:03.42 702.3985 00:03:09 Yes
85 Circle C Lofts - UT 0889-AU23-DWI BB H 1 3 08:25:07.11 700.6788 00:03:12 Yes
86 Ubriaco Racing Loft - OR 5769-AU23-PNW BCSP C 1 1 08:25:07.60 700.4510 00:03:13 Yes
87 Sam Haslem - UT 0486-AU23-SAM BB H 1 1 08:25:10.48 699.1155 00:03:16 Yes
88 Bill and Danny - UT 1670-IF23-FSC BC C 1 1 08:25:16.23 696.4643 00:03:22 Yes
89 Racing Pigeon Mall - WA 0362-AU23-RPM BB H 1 2 08:25:16.94 696.1383 00:03:22 Yes
90 Jimmyzheng Loft - MS 0065-AU23-JIMM BB C 1 2 08:25:21.57 694.0200 00:03:27 Yes
91 Team Power Stroke - UT 0447-AU23-TPS BB H 1 3 08:25:21.77 693.9288 00:03:27 Lost
92 Keyways - ID 0377-AU23-KEYW 1306x27613 BB H 1 2 08:25:23.75 693.0271 00:03:29 Yes
93 Hollywood Lou Loft - FL 1122-AU23-HOLL BC C 1 3 08:25:24.44 692.7134 00:03:30 Yes
94 M D C Loft - OR 1779-AU23-MDC p986x236 BC H 1 4 08:25:25.93 692.0370 00:03:31 Yes
95 Radd - OK 2961-AU23-ARPU 4316/4285 To 2* BCSP C 1 3 08:25:25.99 692.0098 00:03:31 Yes
96 Emmalyn & Carelyn Loft - CA 0836-AU23-CEYX BC C 1 4 08:25:30.56 689.9436 00:03:36 Yes
97 Marian Taloi - OR 43693-AU23-JEDD RC C 1 4 08:25:34.01 688.3919 00:03:39 Yes
98 Radd - OK 2951-AU23-ARPU 1027/4324 MT 3 BB C 1 4 08:25:34.61 688.1227 00:03:40 Yes
99 Team Power Stroke - UT 0418-AU23-TPS BBPD H 1 4 08:25:35.34 687.7955 00:03:41 Yes
100 EscapeULoft - CO 2335-AU23-RILA PNSP H 1 1 08:25:35.59 687.6836 00:03:41 Yes

There are 646 bird records

Note: These Race Results are unofficial and subject to change until verified by the Race Committee and declared final.